| time (UTC) | temp F | wind direction | speed knots | gust knots | rain 1hr in | rain 24hr in | rain mn in | humidity % | barometer mb |
| 20260504193050 | 80 | 67 | 0.0 | 10.4 | 0.00 | 0.00 | 0.00 | 34 | 1014.1 |
| 20260504191557 | 79 | 0 | 1.7 | 8.7 | 0.00 | 0.00 | 0.00 | 35 | 1014.4 |
| 20260504190053 | 80 | 137 | 5.2 | 10.4 | 0.00 | 0.00 | 0.00 | 34 | 1014.5 |
| 20260504184549 | 79 | 136 | 0.9 | 6.1 | 0.00 | 0.00 | 0.00 | 38 | 1014.8 |
| 20260504183053 | 78 | 140 | 4.3 | 12.2 | 0.00 | 0.00 | 0.00 | 35 | 1015.0 |
| 20260504181547 | 78 | 134 | 0.9 | 8.7 | 0.00 | 0.00 | 0.00 | 36 | 1015.1 |
| 20260504180105 | 79 | 122 | 0.0 | 2.6 | 0.00 | 0.00 | 0.00 | 34 | 1015.2 |
| 20260504174549 | 79 | 273 | 1.7 | 7.8 | 0.00 | 0.00 | 0.00 | 35 | 1015.4 |
| 20260504173106 | 77 | 211 | 2.6 | 12.2 | 0.00 | 0.00 | 0.00 | 38 | 1015.3 |
| 20260504171559 | 78 | 250 | 0.0 | 6.1 | 0.00 | 0.00 | 0.00 | 37 | 1015.3 |
| 20260504081548 | 40 | 0 | 0.0 | 0.0 | 0.00 | 0.00 | 0.00 | 90 | 1016.4 |
| 20260504044551 | 44 | 0 | 0.0 | 0.9 | 0.00 | 0.00 | 0.00 | 83 | 1016.8 |
| 20260504043055 | 44 | 0 | 0.0 | 0.0 | 0.00 | 0.00 | 0.00 | 82 | 1016.8 |
| 20260504041547 | 45 | 0 | 0.0 | 0.0 | 0.00 | 0.00 | 0.00 | 80 | 1016.7 |
| 20260504040049 | 45 | 0 | 0.0 | 0.9 | 0.00 | 0.00 | 0.00 | 79 | 1016.4 |
| 20260504034555 | 46 | 0 | 0.0 | 0.0 | 0.00 | 0.00 | 0.00 | 79 | 1016.5 |
| 20260504033048 | 46 | 0 | 0.0 | 0.0 | 0.00 | 0.00 | 0.00 | 78 | 1016.7 |
| 20260504031546 | 47 | 0 | 0.0 | 0.0 | 0.00 | 0.00 | 0.00 | 77 | 1016.8 |
| 20260504030051 | 47 | 0 | 0.0 | 0.0 | 0.00 | 0.00 | 0.00 | 75 | 1016.9 |
| 20260504024551 | 48 | 0 | 0.0 | 0.0 | 0.00 | 0.00 | 0.00 | 74 | 1016.8 |
| 20260504023057 | 48 | 0 | 0.0 | 0.0 | 0.00 | 0.00 | 0.00 | 73 | 1016.9 |
| 20260504021546 | 49 | 0 | 0.0 | 0.0 | 0.00 | 0.00 | 0.00 | 71 | 1016.7 |
| 20260504020056 | 50 | 0 | 0.0 | 0.0 | 0.00 | 0.00 | 0.00 | 69 | 1016.5 |
| 20260504014602 | 51 | 0 | 0.0 | 0.0 | 0.00 | 0.00 | 0.00 | 67 | 1016.1 |
| 20260504013108 | 53 | 0 | 0.0 | 0.0 | 0.00 | 0.00 | 0.00 | 64 | 1015.8 |
| 20260504011549 | 54 | 0 | 0.0 | 0.0 | 0.00 | 0.00 | 0.00 | 60 | 1015.8 |
| 20260504010052 | 56 | 0 | 0.0 | 0.0 | 0.00 | 0.00 | 0.00 | 56 | 1015.6 |
| 20260504004551 | 58 | 0 | 0.0 | 0.0 | 0.00 | 0.00 | 0.00 | 53 | 1015.5 |
| 20260504003047 | 59 | 0 | 0.0 | 0.0 | 0.00 | 0.00 | 0.00 | 47 | 1015.4 |
| 20260504001550 | 59 | 0 | 0.0 | 0.0 | 0.00 | 0.00 | 0.00 | 45 | 1015.2 |
| 20260504000050 | 60 | 0 | 0.0 | 0.0 | 0.00 | 0.00 | 0.00 | 43 | 1015.2 |
| 20260503234549 | 62 | 0 | 0.0 | 0.0 | 0.00 | 0.00 | 0.00 | 42 | 1015.2 |
| 20260503233045 | 63 | 0 | 0.0 | 2.6 | 0.00 | 0.00 | 0.00 | 38 | 1015.0 |
| 20260503231546 | 64 | 0 | 0.0 | 0.9 | 0.00 | 0.00 | 0.00 | 38 | 1015.0 |
| 20260503230052 | 65 | 133 | 0.0 | 6.1 | 0.00 | 0.00 | 0.00 | 35 | 1015.0 |
| 20260503224542 | 65 | 0 | 0.0 | 1.7 | 0.00 | 0.00 | 0.00 | 32 | 1015.0 |
| 20260503223051 | 66 | 200 | 0.9 | 3.5 | 0.00 | 0.00 | 0.00 | 31 | 1015.1 |
| 20260503221604 | 66 | 134 | 0.9 | 4.3 | 0.00 | 0.00 | 0.00 | 32 | 1015.2 |
| 20260503220051 | 67 | 80 | 0.0 | 1.7 | 0.00 | 0.00 | 0.00 | 30 | 1015.3 |
| 20260503214543 | 67 | 98 | 0.9 | 7.0 | 0.00 | 0.00 | 0.00 | 30 | 1015.5 |
| 20260503213048 | 68 | 118 | 0.9 | 5.2 | 0.00 | 0.00 | 0.00 | 31 | 1015.6 |
| 20260503211552 | 69 | 314 | 0.9 | 7.8 | 0.00 | 0.00 | 0.00 | 28 | 1015.9 |
| 20260503210049 | 70 | 0 | 0.0 | 6.1 | 0.00 | 0.00 | 0.00 | 28 | 1016.0 |
| 20260503204606 | 69 | 107 | 0.9 | 7.0 | 0.00 | 0.00 | 0.00 | 30 | 1016.2 |
| 20260503203049 | 67 | 150 | 4.3 | 13.0 | 0.00 | 0.00 | 0.00 | 31 | 1016.3 |
| 20260503201548 | 68 | 101 | 3.5 | 10.4 | 0.00 | 0.00 | 0.00 | 29 | 1016.4 |
| 20260503200047 | 69 | 69 | 2.6 | 6.1 | 0.00 | 0.00 | 0.00 | 30 | 1016.7 |
| 20260503194548 | 68 | 269 | 1.7 | 9.6 | 0.00 | 0.00 | 0.00 | 31 | 1016.7 |